{"data":{"norad_id":52346,"intl_designator":"2022-045R","name":"STARLINK-3812","alt_names":[],"object_type":"PAYLOAD","status":"ACTIVE","operator":null,"country":"US","launch_date":"2022-04-29","launch_site_code":"AFETR","launch_vehicle":null,"mission":null,"orbit_class":"UNKNOWN","rcs_meters":null,"size_class":null,"mass_kg":null,"dimensions":null,"purposes":["comms"],"wikipedia_slug":null,"has_3d_model":false,"image_url":null,"decayed_at":null,"tle_current":{"epoch":"2026-05-25T05:10:24.769344Z","epoch_age_seconds":67141,"freshness":"FRESH","line1":"1 52346U 22045R   26145.21556446 -.00001537  00000+0 -78499-4 0  9992","line2":"2 52346  53.2141 215.5909 0001184  82.5590 277.5537 15.08835681227330","mean_motion":15.08835681,"eccentricity":0.0001184,"inclination_deg":53.2141,"raan_deg":215.5909,"arg_perigee_deg":82.559,"mean_anomaly_deg":277.5537,"bstar":-7.8499e-5,"rev_number":22733,"period_min":95.437827865101,"perigee_km":538.93751184964,"apogee_km":540.57566905186,"semimajor_km":6917.8935904508,"source":"CELESTRAK","updated_at":"2026-05-25T13:38:17.115504Z"}}}